This demonstration page uses our WeatherBlox Daily Observations layout. Learn more.

Left ArrowRight Arrow

34.02893, -84.19858

Hourly Observations for April 15, 2019

Temp ( °F °C ) Dew Point ( °F °C ) Humidity (%) Winds ( mph kmh ) Pressure ( in mb ) Visibility ( mi km ) Precip ( " mm )
12:06 am 00:06 Cloudy 52 11.1 46 7.8 80 80 W 20 31 29.83 1010 10 16 0.00 0.00
12:16 am 00:16 Cloudy 52 11.1 46 7.8 80 80 WNW 15 24 29.84 1010 10 16 0.00 0.00
12:38 am 00:38 Cloudy with Mist and Fog 50 10 46 7.8 86 86 W 15 24 29.85 1011 6 10 0.00 0.00
12:53 am 00:53 Cloudy 50 10 46 7.8 86 86 W 14 22 29.83 1010 10 16 0.00 0.00
1:53 am 01:53 Cloudy 50 10 42 5.6 74 74 W 14 22 29.84 1011 10 16 0.00 0.00
2:20 am 02:20 Cloudy 50 10 42 5.6 74 74 W 13 20 29.87 1012 10 16 0.00 0.00
2:31 am 02:31 Cloudy 50 10 42 5.6 74 74 W 10 17 29.87 1012 10 16 0.00 0.00
2:53 am 02:53 Cloudy 50 10 41 5 71 71 WNW 20 31 29.85 1011 10 16 0.00 0.00
3:53 am 03:53 Cloudy 49 9.4 40 4.4 71 71 WNW 14 22 29.84 1010 10 16 0.00 0.00
4:53 am 04:53 Cloudy 48 8.9 38 3.3 68 68 NW 13 20 29.86 1011 10 16 0.00 0.00
5:53 am 05:53 Cloudy 46 7.8 37 2.8 71 71 WNW 12 19 29.91 1013 10 16 0.00 0.00
6:07 am 06:07 Mostly Cloudy 46 7.8 36 2.2 68 68 WNW 13 20 29.96 1015 10 16 0.00 0.00
6:53 am 06:53 Clear 44 6.7 34 1.1 68 68 NW 13 20 29.95 1014 10 16 0.00 0.00
7:53 am 07:53 Sunny 45 7.2 34 1.1 66 66 NW 10 17 30.01 1016 10 16 0.00 0.00
8:53 am 08:53 Sunny 46 7.8 33 0.6 61 61 NW 18 30 30.04 1017 10 16 0.00 0.00
9:53 am 09:53 Sunny 49 9.4 34 1.1 56 56 NW 20 31 30.06 1018 10 16 0.00 0.00
10:53 am 10:53 Sunny 51 10.6 34 1.1 52 52 NNW 16 26 30.08 1019 10 16 0.00 0.00
11:53 am 11:53 Sunny 54 12.2 33 0.6 45 45 WNW 20 31 30.09 1019 10 16 0.00 0.00
12:53 pm 12:53 Sunny 57 13.9 35 1.7 44 44 NW 15 24 30.09 1019 10 16 0.00 0.00
1:53 pm 13:53 Sunny 59 15 35 1.7 41 41 NW 15 24 30.07 1018 10 16 0.00 0.00
2:53 pm 14:53 Sunny 62 16.7 34 1.1 35 35 WNW 16 26 30.07 1018 10 16 0.00 0.00
3:53 pm 15:53 Sunny 63 17.2 34 1.1 34 34 WNW 17 28 30.06 1018 10 16 0.00 0.00
4:53 pm 16:53 Sunny 64 17.8 33 0.6 32 32 NW 17 28 30.06 1018 10 16 0.00 0.00
5:53 pm 17:53 Sunny 64 17.8 32 0 30 30 NW 16 26 30.07 1018 10 16 0.00 0.00
6:53 pm 18:53 Sunny 64 17.8 31 -0.6 29 29 NW 13 20 30.09 1019 10 16 0.00 0.00
7:53 pm 19:53 Sunny 61 16.1 31 -0.6 32 32 NW 10 17 30.10 1019 10 16 0.00 0.00
8:53 pm 20:53 Clear 58 14.4 33 0.6 39 39 NNW 7 11 30.12 1020 10 16 0.00 0.00
9:53 pm 21:53 Clear 55 12.8 35 1.7 47 47 NNW 6 9 30.14 1021 10 16 0.00 0.00
10:53 pm 22:53 Clear 53 11.7 35 1.7 51 51 NW 6 9 30.16 1021 10 16 0.00 0.00
11:53 pm 23:53 Clear 49 9.4 38 3.3 66 66 Calm 30.16 1021 10 16 0.00 0.00

Powered by AerisWeather